www.pogodaiklimat.ru

Погода и климат >> Архив погоды >> Россия >> Новосибирская область >> Венгерово


ПОГОДА в Венгерово

  • Прогноз погоды в Венгерово
  • Монитор погоды в Венгерово

АРХИВ ПОГОДЫ в Венгерово

Время (UTC), дата Ветер
(напр.,м/с)
 
Видим.   Явления Облачность Т
(С)
Тd
(С)
f
(%)
Тe
(С)
Тes
(С)
Комфортность P
(гПа)
Po
(гПа)
Тmin
(С)
Tmax
(С)
R
(мм)
R24
(мм)
S
(см)
00 17.01 ЮЗ 2 20 км ясно -20.5 -23.1 80 -26 -26 1030.3 1015.7 -20.8 35
03 17.01 Ю 1 4000 м дымка 10/0
[Ac und]
-18.8 -21.3 81 -22 -22 1031.2 1016.7
06 17.01 Ю 2 10 км ясно -18.5 -21.1 80 -24 -23 1032.3 1017.8
09 17.01 ЮВ 3 10 км 4/0
[Ci sp]
-16.6 -18.9 82 -24 -23 1032.7 1018.3
12 17.01 ЮВ 3 20 км ясно -19.3 -21.9 80 -27 -27 1033.5 1019.0 -16.4
15 17.01 Ю 3 20 км ясно -20.8 -23.4 80 -29 -29 1033.1 1018.5
18 17.01 ЮВ 3 20 км 9/0
[As trans]
-20.1 -22.6 80 -28 -28 1031.6 1017.1
21 17.01 ЮВ 2 20 км 10/0
[Cs]
-18.4 -20.8 81 -24 -24 1030.4 1015.9
00 18.01 Ю 5 20 км 10/0
[As op]
-15.8 -17.9 84 -25 -25 1027.3 1013.0 -21.0 35
03 18.01 ЮВ 3 10 км {снег} 10/0
[As op]
-15.1 -17.2 84 -22 -22 1025.8 1011.6
06 18.01 Ю 5 10 км {снег} 10/0
[Ac As]
-12.0 -13.7 87 -20 -20 1023.5 1009.5
09 18.01 Ю 7-10
{10}
10 км 10/0
[Ac As]
-9.6 -11.4 87 -19 -19 1021.1 1007.3
12 18.01 Ю 4
{12}
10 км {метель} 10/0
[Ac As]
-9.2 -11.6 83 -16 -16 1021.4 1007.5 -9.2 0.0
15 18.01 Ю 5 10 км 10/0
[Ac und]
-9.4 -11.6 84 -17 -17 1020.2 1006.4
18 18.01 Ю 4 10 км 9/0
[Ac und]
-9.3 -11.6 83 -16 -16 1019.6 1005.8
21 18.01 Ю 4 4000 м дымка 10/0
[Ac und]
-9.2 -11.4 84 -16 -16 1018.4 1004.6
00 19.01 Ю 2 4000 м дымка 8/0
[Ac und Cc]
-11.1 -13.1 85 -16 -16 1017.9 1004.0 -11.1 35
03 19.01 Ю 3 10 км 9/0
[Ac und]
-9.3 -11.5 84 -15 -15 1017.8 1004.1 -12.6
06 19.01 ЮЗ 4 20 км 8/3 1000 м
[Sc Ac As]
-7.9 -11.0 78 -15 -14 1017.7 1004.0
09 19.01 Ю 4 20 км 9/9 600 м
[Sc]
-7.2 -10.5 77 -14 -14 1018.3 1004.6
12 19.01 Ю 3 20 км 10/10 600 м
[Sc]
-8.4 -10.7 83 -14 -14 1019.2 1005.4 -6.6
15 19.01 Ю 3 4000 м дымка 10/10 600 м
[Sc]
-9.8 -11.1 90 -16 -16 1019.0 1005.1
18 19.01 Ю 3 10 км 10/0
[Ci fib]
-15.8 -17.9 84 -23 -23 1018.7 1004.5
21 19.01 ЮВ 1 20 км 8/0
[Ci fib]
-18.8 -21.3 81 -22 -22 1018.0 1003.7
00 20.01 Ю 1 20 км 10/0
[Ci fib]
-19.5 -22.0 80 -22 -22 1017.7 1003.4 -19.5 35
03 20.01 Ю 1 4000 м дымка 10/0
[Ac und]
-15.8 -17.9 84 -18 -18 1018.0 1003.8 -19.6
06 20.01 Ю 1 10 км слаб. снег 10/0
[As op]
-11.7 -13.4 87 -14 -14 1017.6 1003.7
12 20.01 ЮЗ 4 4000 м дымка 10/0
[Ac und]
-7.4 -8.8 90 -14 -14 1018.0 1004.4 -7.4 0.2
18 20.01 ЮЗ 3 4000 м дымка 10/10 600 м
[Sc]
-3.7 -4.1 97 -9 -9 1016.8 1003.3
00 21.01 Ю 3 4000 м слаб. ливневой снег 10/10 600 м
[Cb calv]
-2.6 -2.9 98 -8 -8 1015.5 1002.1 -7.4 0.2 35
06 21.01 ЮВ 3 20 км {ливн. осадки} 10/0
[Ac und]
-3.0 -6.7 76 -8 -8 1011.8 998.4
12 21.01 ЮЗ 3 20 км 10/0
[Ac und]
-5.8 -8.7 80 -11 -11 1011.9 998.4 -2.4 0.0

 

Местоположение метеостанции Венгерово (Новосибирская область, Россия): широта 55.67 долгота 76.72 высота над уровнем моря 106 м.

В архиве по умолчанию представлена погода в Венгерово за последнюю неделю. Архивные данные за месяц целиком и за предыдущие месяцы, начиная с января 2011 года, Вы можете получить, выбрав интересующий диапазон дат из раскрывающегося списка и нажав кнопку "Ввод!".


*Определитесь, кто Вы:
робот инопланетянин человек

Внимание! Время в таблицах - всемирное. Для получения местного времени необходимо прибавить поправку, которая равна 7 ч.

Смотрите также архив погоды в соседних городах и на ближайших метеорологических станциях:

Погода в Чанах (Новосибирская область, Россия) (39 км)
Погода в Усть-Тарке (Новосибирская область, Россия) (66 км)
Погода в Татарске (Новосибирская область, Россия) (67 км)
Погода в Квашнино (Новосибирская область, Россия) (101 км)
Погода в Кыштовке (Новосибирская область, Россия) (104 км)
Погода в Чистоозерном (Новосибирская область, Россия) (108 км)
Погода в Барабинске (Новосибирская область, Россия) (111 км)
Погода в Нижней Омке (Омская область, Россия) (116 км)
Погода в Северном (Новосибирская область, Россия) (126 км)
Погода в Большеречье (Омская область, Россия) (139 км)

Пояснения к столбцам:

Ветер - указаны скорость ветра в м/с - средняя за 10 мин, порывы в срок и между сроками (в фигурных скобках) и направление, откуда дует ветер: С - северный, СВ - северо-восточный, В - восточный, ЮВ - юго-восточный, Ю - южный, ЮЗ - юго-западный, З - западный, СЗ - северо-западный.
Видимость - горизонтальная дальность видимости в метрах или километрах. При видимости от 1 до 10 км при отсутствии осадков обычно наблюдается дымка, при ухудшении видимости до 1 км и менее - туман. В сухую погоду видимость может ухудшаться дымом, пылью или мглою.
Явления - указаны атмосферные явления, наблюдавшиеся в срок или в последний час перед сроком; фигурными скобками обозначены явления, наблюдавшиеся между сроками (за 1-3 часа до срока); квадратными скобками обозначены град или гололедные отложения с указанием их диаметра в мм.
Облачность - указаны через наклонную черту общая и нижняя облачность в баллах и высота нижней границы облаков в метрах; квадратными скобками обозначены формы облаков: Ci - перистые, Cs - перисто-слоистые, Cc - перисто-кучевые, Ac - высококучевые, As - высокослоистые, Sc - слоисто-кучевые, Ns - слоисто-дождевые, Cu - кучевые, Cb - кучево-дождевые. Подробнее классификацию облаков см. в Атласе облаков (PDF).
T - Температура воздуха - температура, измеренная на высоте 2 м над землей.
Td - Температура точки росы - температура, при понижении до которой содержащийся в воздухе водяной пар достигнет насыщения.
f - Относительная влажность воздуха - влажноcть воздуха, измеренная на высоте 2 м над землей.
Te - Эффективная температура - температура, которую ощущает одетый по сезону человек в тени. Характеристика душности погоды. При расчете учитывается влияние влажности воздуха и скорости ветра на теплоощущения человека.
Tes - Эффективная температура на солнце - температура, которую ощущает человек, с поправкой на солнечный нагрев. Характеристика знойности погоды. Зависит от высоты солнца над горизонтом, облачности и скорости ветра. Ночью, в пасмурную погоду, а также при ветре 12 м/с и более поправка равна нулю.
P - Атмосферное давление - приведенное к уровню моря атмосферное давление.
Po - Атмосферное давление - измеренное на уровне метеостанции атмосферное давление.
Tmin - Минимальная температура - минимум температуры воздуха на высоте 2 м над землей.
Tmax - Максимальная температура - максимум температуры воздуха на высоте 2 м над землей.
R - Количество осадков - Количество выпавших осадков за период времени, мм. При наведении курсора мыши на число - период времени, за который выпало указанное количество осадков.
R24 - Количество осадков - Количество выпавших осадков за 24 часа, мм.
S - Снежный покров - Высота снежного покрова, см. При наведении курсора мыши на число - состояние снежного покрова и степень покрытия местности в баллах.